Wind_Speed
43 43 44 45 47 48 47 43 41 40 40 41 41 40 40 40 39 39 38 35 34 34 32 31 31 32 32 31 29 27 25 24 22 21 19 18 16 15 14 14 13 13 13 12 11 10 9 9 9
45 45 46 47 49 49 47 45 44 44 44 44 44 43 43 43 42 41 39 37 36 35 33 32 32 33 33 33 31 30 28 27 25 24 22 20 19 17 16 15 14 14 14 13 13 12 11 10 10
46 47 48 49 50 48 47 47 47 47 47 46 46 46 46 46 45 44 41 40 39 37 35 35 34 34 34 34 34 32 31 29 28 26 25 23 21 20 18 17 17 16 15 15 14 13 12 12 11
47 48 49 51 50 48 48 49 49 49 50 50 49 49 49 49 48 47 45 43 41 39 38 36 35 35 35 35 35 35 33 32 30 28 27 25 24 22 20 19 18 17 17 17 16 15 14 13 12
47 48 50 51 51 49 50 51 52 53 52 52 52 52 52 51 50 49 47 46 44 42 40 38 37 36 36 36 36 36 35 34 32 31 29 27 26 24 23 21 20 19 18 18 17 17 16 15 14
46 48 50 51 51 50 50 53 54 54 55 54 54 54 53 53 52 51 50 49 48 45 43 41 39 38 37 38 37 37 37 36 34 33 31 29 28 26 25 23 22 21 20 19 19 18 17 16 15
46 48 49 50 50 49 51 53 55 55 56 55 56 55 54 54 53 52 51 51 51 49 46 44 42 41 40 40 39 39 38 38 36 35 34 32 30 28 27 25 23 22 21 21 20 19 19 18 17
44 46 47 47 47 47 49 52 54 55 56 54 56 56 55 54 54 54 54 53 53 52 49 46 45 43 42 42 41 41 40 39 38 37 36 34 32 30 29 27 25 24 23 22 21 21 20 19 18
41 42 42 42 44 45 47 50 52 54 55 55 55 56 55 55 56 57 56 55 55 54 52 49 47 46 44 44 43 42 41 40 39 39 37 35 34 32 30 29 27 26 25 24 23 22 21 20 19
37 37 37 39 42 43 45 47 49 52 53 54 55 56 56 56 57 58 58 57 56 56 55 52 50 48 47 46 45 44 43 42 41 40 38 37 35 34 32 30 29 27 26 25 24 23 23 22 21
33 34 35 37 39 42 44 45 46 49 50 52 55 55 57 57 58 59 60 59 58 57 56 54 53 51 49 48 47 46 45 44 42 41 40 38 37 35 34 32 30 29 27 26 25 24 24 23 23
30 31 33 34 36 39 42 43 44 47 47 49 53 55 57 58 59 60 60 61 60 59 58 57 55 54 52 50 49 49 48 46 44 42 41 40 38 37 35 33 32 30 28 28 27 26 25 25 24
28 29 31 32 33 36 38 40 41 41 43 46 50 53 55 58 59 61 60 61 62 62 61 59 57 55 55 53 51 49 48 48 46 44 42 41 39 38 37 35 33 32 31 30 29 28 27 26 26
26 27 27 28 30 32 34 35 37 37 40 43 47 50 53 55 58 61 62 62 63 62 62 61 60 58 56 55 55 52 50 49 48 46 44 42 41 39 38 37 35 34 33 32 31 30 29 29 28
23 24 24 26 28 28 29 30 31 34 36 38 42 46 48 51 55 59 61 61 62 62 64 63 62 61 58 56 56 54 52 51 49 48 45 43 42 41 40 39 38 36 35 34 33 33 32 31 30
21 21 21 22 23 24 25 24 25 28 29 30 34 39 41 44 48 52 56 59 60 61 62 63 62 61 60 58 56 54 53 51 50 48 46 45 44 42 42 41 39 39 38 37 35 35 34 33 32
17 17 17 17 18 19 19 17 19 22 24 24 26 30 31 35 42 45 50 53 56 58 58 59 59 59 60 59 57 56 54 52 51 50 49 47 46 45 44 42 41 40 39 38 37 37 36 35 34
14 14 13 13 13 13 13 13 12 17 18 19 20 23 25 29 35 40 44 47 51 54 55 56 56 58 59 59 57 57 55 53 52 51 50 48 47 46 45 44 42 41 40 39 39 38 37 37 36
12 11 10 10 10 10 9 9 10 13 14 15 17 19 21 24 30 35 39 43 47 50 53 54 54 55 56 57 58 57 56 54 53 52 51 49 47 46 45 43 42 42 41 40 40 39 38 38 38
9 7 6 6 7 7 6 8 9 9 12 12 14 17 18 21 25 29 35 40 43 45 47 50 51 52 54 53 55 55 55 54 53 51 49 48 49 47 45 45 44 43 43 43 42 41 41 41 41
5 5 4 3 3 4 5 4 4 5 7 8 10 13 14 16 21 25 30 34 36 39 41 43 47 49 50 50 52 54 54 54 52 50 49 48 48 48 46 45 46 46 45 45 44 43 43 42 43
2 2 1 0 1 2 3 3 3 2 2 5 7 10 12 15 18 21 26 28 30 33 36 37 39 43 45 48 49 50 51 50 50 49 49 48 49 48 47 46 46 47 47 46 46 45 45 45 45
1 1 2 1 1 1 2 3 3 3 1 2 5 8 11 14 16 19 21 22 24 28 32 33 35 40 41 44 46 47 47 47 48 49 49 49 48 48 47 46 46 47 46 47 46 45 46 47 47
2 2 1 2 2 2 2 3 3 3 3 3 4 6 9 11 14 15 16 18 19 22 27 29 30 35 37 40 43 45 44 44 45 45 46 47 47 47 48 47 47 47 47 46 46 45 45 46 46
3 2 2 3 3 4 4 4 4 5 6 5 5 6 8 9 9 12 14 17 18 19 22 24 24 28 33 36 37 40 41 40 41 41 43 45 45 45 47 46 47 47 47 47 47 46 46 45 45
4 3 2 3 3 5 6 6 6 5 6 5 6 6 6 7 9 9 10 13 14 17 19 20 20 22 26 31 33 36 38 37 37 38 39 40 41 43 44 45 46 47 47 46 45 46 47 47 48
4 3 2 3 4 5 6 6 7 7 6 5 6 7 7 7 7 8 8 11 12 14 16 18 19 20 22 25 29 33 34 35 34 35 36 38 40 41 43 42 44 45 45 45 45 46 47 47 48
4 3 4 4 5 5 6 6 7 7 7 6 5 5 5 6 8 9 7 8 8 11 13 16 19 19 19 21 24 28 29 29 30 32 34 36 37 38 41 42 42 45 47 48 47 48 47 47 48
5 5 5 5 5 5 6 7 6 6 7 7 7 5 5 6 7 6 5 6 7 9 10 12 15 15 16 17 20 22 24 25 26 28 29 31 33 34 37 38 40 41 43 43 44 44 45 46 48
5 6 6 5 5 5 5 7 7 7 7 8 7 6 6 7 6 5 5 5 6 8 9 9 10 12 14 15 18 20 22 24 24 26 27 28 31 33 34 35 36 37 39 41 42 42 43 45 46
Wind_Direction
258 257 256 255 254 254 256 257 258 256 253 251 250 249 248 247 246 245 244 242 241 241 240 238 235 234 234 234 234 234 236 237 239 241 244 245 245 247 249 248 248 249 250 252 254 257 256 254 252
259 257 256 255 255 256 256 256 255 253 252 251 251 250 249 248 246 245 243 242 241 241 241 239 237 235 234 234 234 234 234 236 237 240 243 244 244 245 247 247 248 249 250 251 253 255 255 254 252
259 258 256 256 255 256 257 255 254 254 253 252 251 250 249 248 247 245 243 242 241 240 240 240 238 236 234 233 234 234 234 235 236 239 241 243 243 244 246 246 247 249 250 251 252 254 255 254 253
260 258 257 256 256 256 256 255 254 253 251 251 250 249 248 247 247 246 243 242 241 240 239 240 238 236 235 234 234 234 234 235 236 238 239 241 242 243 245 246 246 248 250 252 252 253 254 254 254
261 260 258 257 257 256 255 254 253 252 251 250 250 249 247 246 246 245 244 242 241 240 239 239 239 236 235 236 235 234 234 234 236 237 238 239 241 242 243 245 245 247 250 252 252 253 254 254 255
263 262 260 259 257 256 254 253 252 251 250 249 248 247 246 245 244 244 243 241 240 240 240 238 237 236 235 236 236 235 234 234 235 236 237 239 240 242 242 243 244 247 249 251 252 253 254 254 255
265 263 262 260 258 256 255 253 251 250 249 248 247 246 244 243 243 243 242 241 240 239 240 239 237 236 235 235 235 235 235 235 235 235 236 237 240 241 242 243 244 246 248 250 252 254 253 254 254
267 266 264 261 259 256 255 254 252 250 247 246 246 245 243 242 242 242 240 239 238 238 238 237 236 236 236 235 235 234 234 234 234 235 235 236 238 240 242 243 244 246 248 249 251 253 253 253 253
269 267 265 262 259 257 255 254 252 250 247 245 245 243 242 240 239 240 239 237 236 235 236 235 234 234 234 234 233 234 233 233 234 234 235 236 237 239 241 242 244 245 247 248 250 252 252 252 252
270 268 266 263 261 259 257 255 253 250 249 248 244 242 240 239 237 237 238 236 235 235 235 234 233 232 231 231 232 233 233 233 233 233 234 235 237 239 240 240 242 243 245 247 249 252 253 252 252
270 269 267 265 262 260 257 256 254 251 251 248 244 240 239 237 236 235 234 234 235 234 233 233 232 232 230 230 231 231 231 232 232 232 233 235 236 238 239 240 241 243 245 247 249 252 253 253 254
271 270 269 267 264 262 259 258 256 255 254 250 244 240 237 237 236 235 232 232 232 233 232 231 230 230 230 229 229 230 230 231 232 232 233 234 236 238 239 240 241 242 244 246 248 251 252 254 255
274 272 271 269 267 265 263 262 259 257 255 250 245 240 238 236 235 234 233 232 231 231 231 229 228 229 230 228 227 228 228 229 231 232 232 233 235 237 239 240 241 242 244 246 248 251 252 254 255
275 273 272 271 269 268 266 264 262 259 256 252 246 241 239 236 235 233 232 231 231 230 228 227 227 227 228 228 227 228 228 229 231 232 232 233 235 237 238 239 241 243 245 246 248 250 252 253 255
276 275 274 273 270 270 269 266 264 260 257 253 247 242 240 238 237 233 231 231 229 228 228 228 226 226 227 227 226 226 227 229 231 231 232 233 234 236 239 240 240 243 245 247 249 250 251 253 254
277 277 276 273 272 272 272 269 263 262 258 255 247 242 240 238 234 231 229 229 228 227 226 225 225 224 226 226 225 225 226 228 229 230 232 233 234 236 239 240 241 242 245 247 249 250 251 252 254
278 277 276 274 273 274 276 274 263 259 258 256 246 240 239 235 230 228 226 224 224 223 223 223 223 222 222 223 223 223 223 226 228 229 232 234 236 237 239 241 242 243 245 247 249 249 250 252 254
278 278 278 275 272 275 281 279 269 263 261 257 248 240 235 231 227 223 222 221 220 219 219 220 221 221 221 220 220 222 223 225 228 230 232 234 236 238 240 240 240 243 245 247 249 251 251 252 253
279 282 282 274 271 278 284 283 277 266 264 258 247 240 235 228 224 219 220 219 217 216 217 218 218 219 219 219 220 223 224 224 226 229 231 233 235 238 241 241 242 243 245 247 249 250 251 253 255
278 284 280 275 274 275 284 292 291 273 264 253 239 235 232 224 218 216 215 213 214 216 217 220 220 219 220 220 220 221 223 224 227 230 232 234 236 238 240 241 242 243 245 247 249 252 253 255 257
279 291 282 263 268 280 284 304 310 278 255 241 230 229 221 213 210 213 211 210 212 212 215 218 219 218 220 221 220 220 221 224 228 229 230 233 236 238 239 240 241 243 246 249 250 251 253 256 257
299 303 352 22 272 287 291 309 340 339 252 219 211 211 207 206 202 205 206 208 210 211 213 218 219 217 220 220 220 221 221 224 226 228 230 233 235 236 237 239 243 246 247 249 251 252 255 256 257
84 86 76 60 17 336 326 351 14 29 5 163 178 190 193 192 191 193 196 206 215 215 216 218 220 219 220 219 219 221 221 224 226 227 230 231 234 234 236 240 244 247 248 250 253 255 256 257 259
121 108 104 87 85 75 60 34 55 65 91 126 140 157 174 182 184 185 196 201 208 209 214 214 213 218 219 219 218 220 220 222 224 225 228 231 234 236 238 240 244 245 248 250 253 255 257 258 258
128 109 120 116 110 86 86 63 75 76 86 96 120 136 153 174 177 183 189 196 203 204 207 208 213 218 219 218 218 219 217 221 224 226 230 233 235 237 238 240 244 246 248 251 253 255 257 258 259
125 117 115 103 100 105 101 83 83 81 68 71 89 117 145 159 165 170 188 197 201 206 209 211 216 218 220 219 217 220 220 224 226 227 231 233 235 237 240 242 245 248 250 251 253 256 257 258 259
132 117 110 106 101 103 101 91 87 89 87 88 95 110 128 144 159 166 181 194 200 207 211 211 211 214 218 219 221 222 221 226 230 231 234 236 238 240 242 245 248 248 250 252 255 257 259 259 259
119 115 111 116 107 95 98 93 92 91 90 94 109 121 130 134 148 161 176 185 192 197 205 209 210 214 216 222 225 224 223 228 235 238 238 239 242 245 246 247 248 252 254 256 257 258 258 260 261
111 105 102 106 110 105 100 88 92 97 94 91 96 100 111 135 142 154 175 185 186 190 198 208 212 214 217 225 227 224 225 232 240 243 244 246 249 251 249 250 253 254 256 259 261 259 259 262 264
112 105 104 109 113 109 102 94 90 91 95 89 83 92 110 122 136 149 163 173 180 184 191 202 210 215 219 226 227 231 235 241 252 257 257 258 258 257 255 256 259 260 261 261 261 260 262 263 264
Height
5793 5795 5796 5797 5798 5799 5802 5807 5810 5813 5815 5816 5817 5819 5822 5825 5829 5833 5836 5839 5841 5844 5847 5850 5852 5855 5858 5860 5863 5865 5867 5870 5871 5873 5875 5876 5877 5878 5879 5880 5880 5881 5882 5882 5882 5882 5882 5882 5883
5784 5786 5787 5787 5788 5789 5795 5799 5800 5803 5804 5806 5809 5811 5814 5816 5819 5824 5828 5832 5835 5838 5841 5844 5847 5850 5853 5855 5858 5861 5864 5866 5868 5870 5871 5873 5874 5875 5877 5878 5878 5879 5880 5880 5880 5881 5881 5881 5881
5774 5775 5776 5776 5778 5782 5786 5789 5791 5792 5795 5797 5799 5802 5805 5808 5811 5815 5820 5824 5828 5832 5835 5838 5842 5844 5847 5850 5853 5856 5859 5862 5864 5866 5868 5870 5871 5873 5874 5875 5876 5877 5877 5878 5878 5879 5879 5879 5879
5763 5764 5765 5766 5769 5773 5775 5778 5779 5781 5784 5786 5788 5792 5795 5799 5802 5807 5812 5816 5821 5825 5828 5832 5835 5839 5842 5845 5848 5851 5854 5857 5860 5862 5864 5866 5868 5869 5871 5872 5873 5874 5875 5876 5876 5877 5877 5877 5878
5752 5752 5753 5755 5758 5762 5763 5765 5766 5769 5772 5774 5777 5781 5784 5789 5792 5797 5802 5807 5812 5817 5821 5825 5829 5832 5836 5839 5843 5846 5849 5852 5855 5858 5860 5862 5864 5866 5867 5869 5870 5871 5872 5873 5874 5874 5875 5875 5875
5741 5741 5742 5744 5747 5749 5750 5751 5753 5756 5759 5762 5765 5769 5774 5778 5782 5788 5792 5798 5803 5808 5813 5817 5821 5825 5829 5833 5837 5840 5843 5847 5850 5853 5856 5858 5860 5862 5864 5865 5866 5868 5869 5870 5871 5871 5872 5873 5873
5730 5729 5730 5732 5734 5736 5737 5737 5739 5742 5745 5749 5752 5757 5763 5767 5771 5776 5782 5787 5793 5799 5804 5809 5813 5818 5822 5826 5830 5834 5837 5841 5844 5847 5850 5853 5855 5858 5860 5861 5863 5864 5865 5867 5867 5868 5869 5870 5870
5717 5718 5718 5719 5720 5723 5723 5723 5725 5728 5732 5736 5739 5744 5751 5756 5761 5765 5771 5776 5782 5789 5794 5800 5805 5810 5814 5819 5823 5827 5831 5835 5838 5841 5845 5848 5850 5853 5855 5857 5859 5860 5862 5863 5864 5865 5866 5866 5867
5706 5708 5707 5707 5708 5710 5710 5710 5712 5714 5718 5722 5726 5732 5739 5744 5748 5753 5758 5764 5771 5778 5784 5790 5796 5801 5806 5811 5815 5819 5824 5828 5832 5835 5839 5842 5845 5848 5850 5852 5855 5856 5857 5859 5860 5861 5862 5863 5863
5697 5697 5697 5697 5696 5698 5698 5698 5700 5702 5706 5710 5714 5719 5724 5729 5735 5741 5747 5753 5760 5767 5774 5780 5786 5791 5797 5802 5807 5812 5816 5821 5825 5829 5833 5836 5839 5842 5845 5847 5850 5851 5853 5854 5856 5857 5858 5859 5860
5688 5688 5687 5686 5685 5686 5687 5688 5688 5690 5695 5698 5700 5705 5710 5716 5722 5728 5735 5742 5748 5756 5763 5769 5775 5781 5787 5793 5799 5804 5809 5813 5818 5822 5827 5830 5833 5836 5839 5842 5845 5846 5848 5850 5851 5853 5854 5855 5856
5680 5679 5678 5677 5676 5675 5676 5676 5677 5678 5683 5683 5685 5691 5696 5702 5709 5715 5721 5729 5736 5743 5751 5757 5764 5770 5777 5784 5789 5795 5800 5806 5811 5815 5820 5824 5827 5831 5834 5837 5839 5841 5843 5845 5846 5848 5849 5850 5851
5673 5671 5669 5667 5666 5666 5665 5666 5665 5668 5669 5669 5671 5676 5681 5688 5695 5701 5708 5715 5722 5730 5738 5746 5752 5759 5766 5773 5780 5787 5792 5798 5803 5808 5812 5817 5821 5824 5828 5831 5833 5836 5838 5840 5841 5843 5844 5845 5846
5665 5663 5661 5660 5658 5657 5656 5657 5655 5657 5656 5657 5659 5663 5668 5673 5680 5685 5692 5700 5708 5717 5725 5733 5740 5747 5755 5762 5770 5777 5783 5789 5795 5800 5804 5809 5814 5818 5821 5824 5827 5830 5832 5834 5835 5837 5838 5840 5841
5658 5657 5655 5653 5651 5649 5648 5649 5648 5647 5645 5646 5648 5651 5655 5659 5664 5670 5678 5686 5695 5703 5711 5719 5728 5736 5743 5751 5759 5767 5774 5780 5786 5792 5797 5802 5806 5810 5814 5817 5820 5823 5825 5827 5829 5830 5832 5833 5835
5652 5651 5650 5648 5645 5642 5643 5643 5641 5638 5637 5637 5639 5641 5644 5647 5651 5657 5664 5672 5681 5689 5697 5706 5715 5724 5732 5741 5749 5757 5764 5771 5777 5783 5788 5793 5798 5803 5806 5810 5812 5815 5818 5820 5822 5824 5825 5827 5828
5647 5646 5644 5643 5640 5637 5636 5636 5636 5632 5631 5631 5631 5633 5635 5637 5641 5645 5652 5660 5668 5676 5685 5694 5703 5712 5721 5730 5739 5747 5755 5762 5769 5774 5780 5785 5790 5794 5798 5802 5805 5807 5810 5812 5815 5816 5818 5820 5821
5643 5641 5639 5638 5636 5634 5632 5631 5630 5628 5627 5627 5626 5627 5629 5631 5634 5638 5643 5650 5658 5666 5675 5683 5692 5701 5710 5719 5728 5737 5745 5753 5759 5765 5771 5776 5781 5786 5790 5794 5797 5800 5802 5805 5807 5809 5810 5812 5813
5639 5637 5635 5634 5632 5631 5629 5628 5626 5624 5623 5623 5623 5623 5624 5625 5628 5632 5637 5643 5650 5658 5666 5674 5683 5691 5700 5709 5718 5727 5735 5743 5750 5756 5762 5767 5772 5777 5781 5785 5789 5792 5794 5797 5799 5801 5802 5803 5804
5636 5634 5633 5631 5629 5628 5627 5626 5624 5622 5620 5620 5620 5620 5619 5620 5624 5628 5633 5638 5645 5652 5659 5668 5675 5684 5691 5699 5708 5717 5726 5734 5741 5747 5753 5758 5763 5768 5772 5777 5780 5783 5786 5788 5790 5792 5794 5795 5796
5634 5632 5630 5629 5628 5627 5626 5625 5622 5619 5618 5617 5617 5616 5616 5618 5622 5625 5630 5635 5641 5647 5654 5661 5669 5676 5684 5692 5699 5707 5716 5724 5731 5738 5744 5750 5754 5759 5763 5767 5771 5774 5776 5779 5781 5783 5785 5786 5787
5632 5630 5629 5628 5627 5626 5625 5624 5622 5619 5617 5616 5616 5615 5615 5618 5620 5623 5627 5632 5638 5643 5649 5656 5662 5669 5676 5684 5692 5700 5708 5716 5723 5730 5735 5740 5745 5749 5754 5758 5761 5764 5767 5769 5771 5773 5774 5775 5777
5631 5629 5629 5628 5627 5626 5625 5623 5623 5619 5618 5616 5615 5615 5616 5618 5620 5622 5626 5631 5635 5639 5645 5651 5657 5664 5670 5677 5685 5693 5700 5707 5713 5720 5726 5731 5736 5740 5744 5748 5751 5754 5757 5759 5761 5762 5763 5764 5766
5630 5630 5629 5628 5627 5627 5625 5624 5623 5620 5618 5617 5616 5616 5616 5618 5620 5623 5626 5630 5633 5637 5642 5647 5652 5658 5664 5671 5678 5685 5692 5699 5705 5711 5717 5722 5726 5730 5734 5738 5741 5743 5746 5748 5750 5751 5752 5753 5754
5631 5631 5630 5629 5628 5627 5626 5624 5624 5621 5620 5618 5618 5618 5619 5620 5622 5624 5626 5629 5633 5636 5640 5644 5650 5655 5660 5666 5672 5678 5685 5692 5698 5704 5708 5713 5717 5721 5724 5727 5730 5733 5735 5737 5738 5740 5740 5741 5742
5631 5631 5631 5630 5629 5628 5627 5625 5625 5623 5621 5620 5619 5620 5621 5622 5623 5625 5627 5630 5633 5636 5640 5644 5648 5653 5658 5663 5668 5673 5679 5685 5691 5696 5700 5704 5708 5712 5714 5717 5720 5722 5724 5725 5726 5727 5728 5729 5730
5631 5630 5631 5630 5629 5629 5628 5627 5626 5625 5624 5623 5622 5622 5623 5623 5624 5626 5627 5630 5632 5635 5639 5643 5647 5651 5656 5661 5665 5670 5675 5680 5684 5688 5692 5696 5699 5702 5704 5706 5708 5710 5712 5714 5715 5716 5716 5717 5717
5631 5631 5631 5631 5630 5629 5629 5629 5628 5627 5626 5625 5625 5625 5624 5625 5626 5627 5628 5630 5632 5635 5639 5642 5646 5650 5654 5658 5662 5666 5670 5674 5678 5682 5685 5688 5690 5692 5694 5696 5698 5699 5701 5702 5702 5703 5703 5704 5704
5633 5632 5631 5631 5631 5631 5630 5632 5630 5629 5628 5627 5627 5626 5626 5626 5627 5628 5629 5631 5633 5635 5638 5642 5645 5648 5652 5655 5658 5662 5665 5669 5672 5675 5678 5680 5681 5683 5685 5686 5687 5688 5689 5689 5689 5690 5690 5691 5691
5633 5633 5633 5633 5633 5632 5632 5636 5631 5630 5629 5629 5629 5628 5628 5628 5629 5629 5630 5632 5633 5635 5637 5641 5643 5646 5649 5652 5655 5658 5661 5664 5666 5668 5670 5671 5673 5674 5675 5676 5677 5677 5677 5677 5677 5678 5678 5678 5678